Location: *
(50.6089°N, 2.2719°E)
Time: 12:17:47
(UTC+00:00)

STARLINK-52 - Pass Details

Date: 18 October 2019
Orbit: 443 x 445 km, 53.0° (Epoch: 17 November)

Event Time Altitude Azimuth Distance (km) Brightness Sun altitude
Rises 18:56:55 0° 290° (WNW) 2,442 8.4 -20.3°
Reaches altitude 10° 18:59:02 10° 288° (WNW) 1,570 7.1 -20.6°
Enters shadow 19:02:29 74° 220° (SW) 467 3.2 -21.1°
